Overview Statistics Trail Chart Weather Telemetry Raw packets
 

This is the latest recevied weather packets stored in our database for station/object YO8TVD-10. If no packets are shown the sender has not sent any weather packets the latest 10 day(s).

<< 5 6 7 8 9 10 11 >>
Time Temp. Humidity Pressure Rain* Wind** Luminosity Snow
1788526212 25.56° C 54% 973.3 hPa - - - -
1788525312 25.56° C 53% 973.3 hPa - - - -
1788524412 25.56° C 53% 973.6 hPa - - - -
1788523512 25.56° C 52% 973.6 hPa - - - -
1788522612 26.11° C 52% 973.7 hPa - - - -
1788521711 25.56° C 53% 974 hPa - - - -
1788520811 26.11° C 52% 974.2 hPa - - - -
1788519911 26.11° C 52% 974.2 hPa - - - -
1788519011 26.11° C 51% 974.2 hPa - - - -
1788518111 26.11° C 52% 974.4 hPa - - - -
1788517211 26.11° C 51% 974.5 hPa - - - -
1788516311 26.11° C 51% 974.4 hPa - - - -
1788515410 26.67° C 52% 974.5 hPa - - - -
1788514510 26.67° C 52% 974.5 hPa - - - -
1788513610 26.67° C 51% 974.9 hPa - - - -
1788512710 27.22° C 52% 974.9 hPa - - - -
1788511809 26.67° C 51% 974.9 hPa - - - -
1788510909 26.67° C 51% 975 hPa - - - -
1788510016 26.67° C 52% 975.1 hPa - - - -
1788509116 26.67° C 52% 975.1 hPa - - - -
1788508216 26.67° C 52% 975.2 hPa - - - -
1788507315 26.67° C 52% 975.2 hPa - - - -
1788506415 27.22° C 52% 975.2 hPa - - - -
1788505515 26.67° C 52% 975.3 hPa - - - -
1788504615 26.11° C 52% 975.4 hPa - - - -

* Rain since midnight (hover to see other rain measurements)
** Current wind speed in m/s (hover to see current wind gust speed)